Погода в Башове

Россия / Псковская область     56°38′58″N   30°10′30″E
темп.,
°C
ветер,
м/с
пор.,
м/с
влажн.,
%
обл.,
%
осадки,
мм/ч
давл.,
гПа
погр.,
м
13 июня, вс
вс1300:00+13ю278988 0.0 1003130
03:00+12ююв279660 0.0 1002145
06:00+14ю2693100 0.1 1002180
09:00+18ю2374100 0.1 1003637
12:00+19зюз128199 1.8 1003747
15:00+17ссз359398 5.5 1004267
18:00+17ссз258597 0.5 1006201
21:00+16ссз4976100 0.6 1007600
14 июня, пн
пн1400:00+14ссз41089100 0.4 1010507
03:00+12ссз4109483 0.4 1012441
06:00+12ссз4993100 0.0 1014466
09:00+15ссв367954 0.0 1015643
12:00+19ссв45569 0.0 10161194
15:00+22ссв33472 0.0 10161426
18:00+22с22493 0.0 10161386
21:00+16св11752 0.0 101611
15 июня, вт
вт1500:00+13ююз117946 0.0 101611
03:00+13ююз118165 0.0 101511
06:00+15юз1278100 0.0 101445
09:00+18з256975 0.0 1014401
12:00+22юз4642100 0.0 10131564
15:00+23зюз4643100 0.0 10121843
18:00+21зсз4668100 0.1 1011666
21:00+15зсз3997100 2.0 1012421
16 июня, ср
ср1600:00+14зсз2798100 1.3 1013356
03:00+10зсз38970 1.4 1015215
06:00+9сз39974 0.0 1017248
09:00+15ссз36703 0.0 1018552
12:00+20с45415 0.0 10191775
15:00+22с453343 0.0 10191902
18:00+21ссз354468 0.0 10201739
21:00+15с22705 0.0 102112
17 июня, чт
чт1700:00+12сз11775 0.0 102310
03:00+10сз11830 0.0 102510
06:00+12с11775 0.0 102514
09:00+19св12505 0.0 1026392
12:00+23всв22360 0.0 10251404
15:00+25всв11335 0.0 10251726
18:00+24ссв11390 0.0 10241617
21:00+18зсз00700 0.0 102511